Regional Weather Roundup
Issued by NWS

Home | Current Version | Previous Version | Text Only | Print | Product List | Glossary Off
Versions: 1 2 3 4 5 6 7 8 9 10 11 12 13 14 15 16 17 18 19 20 21 22 23 24 25 26 27 28 29 30 31 32 33 34 35 36 37 38 39 40 41 42 43 44 45 46 47 48 49 50

000
ASUS43 KMPX 212001
RWRMN
WEATHER ROUNDUP FOR MINNESOTA
NATIONAL WEATHER SERVICE TWIN CITIES/CHANHASSEN MN
300 PM CDT SAT OCT 21 2017


NOTE: "FAIR" INDICATES FEW OR NO CLOUDS BELOW 12,000 FEET WITH NO
SIGNIFICANT WEATHER AND/OR OBSTRUCTIONS TO VISIBILITY. N/A MEANS
CURRENT SKY AND/OR WEATHER CONDITIONS ARE NOT AVAILABLE.

MNZ060>063-068>070-212100-
   Twin Cities Metro

CITY           SKY/WX    TMP DP  RH WIND       PRES   REMARKS
TWIN CITIES    CLOUDY    67  62  84 S21G30    29.67S
ST PAUL        CLOUDY    65  61  87 S15       29.68S
CRYSTAL        CLOUDY    66  58  75 S16G24    29.64S
BLAINE         CLOUDY    66  63  88 S18G24    29.65S
LAKEVILLE      CLOUDY    64  61  88 S15G22    29.68S
EDEN PRAIRIE   CLOUDY    68  61  78 S22G32    29.64S
SOUTH ST PAUL  CLOUDY    66  61  83 S15G24    29.68S
LAKE ELMO      CLOUDY    64  61  88 S17G23    29.70S
$$
MNZ001>005-007-008-013>017-022>024-027-028-212100-
   Northwest Minnesota

CITY           SKY/WX    TMP DP  RH WIND       PRES   REMARKS
BEMIDJI        CLOUDY    61  59  92 S8        29.50F FOG
HALLOCK        MOSUNNY   66  39  37 SW17G24   29.43R
ROSEAU         PTSUNNY   64  52  63 S10       29.44S
WARROAD        PTSUNNY   63  59  88 S10       29.46R
CROOKSTON      PTSUNNY   63  43  48 W9        29.50R
FOSSTON        CLOUDY    55  50  82 S7        29.50F
DETROIT LAKES  RAIN      52  50  93 W10       29.56R
MOORHEAD       CLOUDY    57  50  77 CALM      29.54S
PARK RAPIDS    CLOUDY    64  60  87 S14G23    29.50F
MAHNOMEN       CLOUDY    55  50  85 W10       29.51R
$$
MNZ006-009>011-018-025>026-212100-
   North Central Minnesota

CITY           SKY/WX    TMP DP  RH WIND       PRES   REMARKS
BAUDETTE       CLOUDY    64  57  78 S14G21    29.47S
FLAG ISLAND    CLOUDY    55  52  88 S8        29.43S
INTL FALLS     CLOUDY    64  56  75 S12G18    29.53S
WASKISH        CLOUDY    64  57  77 S7G18     29.50S
BIG FORK       CLOUDY    63  57  82 S10G20    29.55S
LONGVILLE      CLOUDY    61  59  94 S13G20    29.54F FOG
GRAND RAPIDS   LGT RAIN  59  58  96 S15       29.59F FOG
CRANE LAKE     CLOUDY    63  55  77 S8G17     29.59S
ORR            CLOUDY    61  54  77 S14G20    29.55S
COOK           CLOUDY    61  57  88 S13G20    29.59F
WALKER         CLOUDY    59  58  96 S9        29.52S FOG
$$
MNZ012-019>021-037-212100-
   Northeast Minnesota

CITY           SKY/WX    TMP DP  RH WIND       PRES   REMARKS
DULUTH         DRIZZLE   58  58 100 S15G22    29.66S FOG
ELY            CLOUDY    59  55  88 S9G18     29.63S
HIBBING        CLOUDY    59  57  93 S13G22    29.60F
EVELETH        CLOUDY    60  60  99 S16G22    29.62F FOG
DULUTH HARBOR  CLOUDY    61  59  94 S14G24    29.65F
TWO HARBORS    CLOUDY    63  57  82 S12       29.66S
SILVER BAY     CLOUDY    59  59 100 S7        29.67S
GRAND MARAIS     N/A     52  51  97 NE6       29.71F
G MARAIS ARPRT RAIN      55  52  88 S10G17    29.73S
$$
MNZ029>031-032-039>041-046>048-054>057-064-212100-
   West Central Minnesota

CITY           SKY/WX    TMP DP  RH WIND       PRES   REMARKS
FERGUS FALLS   CLOUDY    54  46  76 NW10      29.55S
WHEATON        CLOUDY    55  46  71 W8        29.59R
MORRIS         PTSUNNY   55  48  76 W17       29.57R
ALEXANDRIA     TSTM      65  63  93 SW12      29.53R FOG
ELBOW LAKE     CLOUDY    54  47  79 NW10      29.56R
WADENA         CLOUDY    64  59  82 S13       29.51S
GLENWOOD       CLOUDY    64  63  94 W15       29.53R
APPLETON       CLOUDY    59  46  63 W17G23    29.58R
BENSON         CLOUDY    59  48  67 NW23      29.58R
ORTONVILLE     CLOUDY    55  46  71 NW14      29.58S
MADISON        CLOUDY    61  48  63 W18G25    29.60R
WILLMAR        PTSUNNY   72  63  73 S15G21    29.55S
$$
MNZ033>034-036-042>043-049>051-058-059-212100-
   Central Minnesota

CITY           SKY/WX    TMP DP  RH WIND       PRES   REMARKS
ST CLOUD       CLOUDY    64  62  93 S18G28    29.58F
SAUK CENTRE    MOCLDY    68  61  77 S22G28    29.52F
PAYNESVILLE    MOSUNNY   69  62  78 S16G26    29.56F
AITKIN         CLOUDY    57  55  94 S16       29.57F FOG
PINE RIVER     CLOUDY    59  55  88 S12G21    29.58F
BRAINERD       CLOUDY    62  60  93 S17G26    29.57F FOG
STAPLES        CLOUDY    64  59  82 SE12G18   29.53F
LONG PRAIRIE   CLOUDY    64  59  82 E17G24    29.53F
LITTLE FALLS   CLOUDY    63  55  77 SE12G20   29.57F
LITCHFIELD     PTSUNNY   68  63  83 SE9G17    29.58F
BUFFALO        CLOUDY    65  60  81 SE12G18   29.63S
MAPLE LAKE     CLOUDY    66  63  87 S10G18    29.61F
HUTCHINSON     CLOUDY    69  63  80 S13G24    29.60S
$$
MNZ037-044-045-052-053-212100-
   East Central Minnesota

CITY           SKY/WX    TMP DP  RH WIND       PRES   REMARKS
PRINCETON      CLOUDY    66  63  88 SE13      29.62F
MORA           CLOUDY    59  59 100 S10G16    29.65F
CAMBRIDGE      CLOUDY    66  64  94 SE9       29.64F
RUSH CITY      CLOUDY    62  59  88 S10G16    29.66S
MOOSE LAKE     CLOUDY    61  57  88 S8G17     29.63S FOG
HINCKLEY       CLOUDY    61  61 100 SE13G20   29.65F
CLOQUET        CLOUDY    61  57  88 S10G16    29.65S FOG
MCGREGOR       CLOUDY    61  59  94 S16G23    29.61F
$$
MNZ071>073-080-081-089-090-097-098-212100-
   Southwest Minnesota

CITY           SKY/WX    TMP DP  RH WIND       PRES   REMARKS
MONTEVIDEO     CLOUDY    61  52  72 NW16G28   29.58R
GRANITE FALLS  CLOUDY    61  53  75 W22G30    29.60R
CANBY          CLOUDY    59  47  64 NW20G28   29.63R
MARSHALL       CLOUDY    59  49  69 W26       29.59R
REDWOOD FALLS  CLOUDY    73  60  63 S22G35    29.54F
OLIVIA         CLOUDY    72  63  73 S17G25    29.54F
PIPESTONE      CLOUDY    54  43  66 NW17G25   29.67R
WORTHINGTON    LGT RAIN  57  51  80 W20G25    29.65R
JACKSON        CLOUDY    68  61  77 S18G26    29.62F
TRACY          CLOUDY    58  53  81 W9G18     29.61R
SLAYTON        CLOUDY    57  49  77 W22       29.64R
$$
MNZ065>067-074>077-082>085-091>093-212100-
   South Central Minnesota

CITY           SKY/WX    TMP DP  RH WIND       PRES   REMARKS
MANKATO        CLOUDY    67  61  81 S17G26    29.65F
NEW ULM        PTSUNNY   70  61  73 S22G33    29.60F
ST JAMES       MOSUNNY   70  63  78 S29G36    29.62F
FAIRMONT       PTSUNNY   68  62  81 S25G36    29.64F
GLENCOE        CLOUDY    69  65  86 S13G29    29.61F
FARIBAULT      CLOUDY    66  61  82 SE17G25   29.70S
OWATONNA       CLOUDY    64  61  88 S16G29    29.72S
WASECA         CLOUDY    64  59  82 S15G23    29.71S
$$
MNZ078>079-086>088-094>096-212100-
   Southeast Minnesota

CITY           SKY/WX    TMP DP  RH WIND       PRES   REMARKS
ROCHESTER      CLOUDY    65  59  81 S21G31    29.77S
RED WING       CLOUDY    68  55  64 S18G24    29.71S
STANTON        CLOUDY    67  60  78 S18G28    29.69S
DODGE CENTER   PTSUNNY   64  57  77 S25G36    29.74S
WINONA         CLOUDY    70  57  64 S7G18     29.80S
AUSTIN         CLOUDY    64  59  82 S15G24    29.75S
PRESTON        CLOUDY    66  57  72 S18G25    29.81R
$$
ABBREVIATIONS USED IN REMARKS
   TC - TEMPERATURES IN CELSIUS
  WCI - WIND CHILL INDEX
   HX - HEAT INDEX
  VSB - VISIBILITY
$$




USA.gov is the U.S. government's official web portal to all federal, state and local government web resources and services.